Location: Sungai Bunut
(2.6333°N, 113.7333°E)
Time: 20:13:40
(UTC+00:00)

Vanguard 3 - Pass Details

Date: 09 December 2023
Orbit: 508 x 3239 km, 33.4° (Epoch: 24 February)

Event Time Altitude Azimuth Distance (km) Brightness Sun altitude
Rises 11:47:43 0° 258° (WSW) 7,192 13.4 -21.8°
Reaches altitude 10° 11:53:20 10° 265° (W) 6,154 12.6 -23.1°
Maximum altitude 12:09:59 36° 325° (NW) 3,758 10.5 -26.9°
Enters shadow 12:18:30 21° 15° (NNE) 3,972 10.3 -28.8°
Drops below altitude 10° 12:22:05 10° 28° (NNE) 4,473 - -29.7°
Sets 12:25:28 0° 37° (NE) 5,109 - -30.4°
